Location: Byszew
(52.1813°N, 19.2693°E)
Time: 03:57:10
(UTC+00:00)

Cosmos 1844 - Visible Passes

Search period start: 14 June 2021 00:00
Search period end: 24 June 2021 00:00
Orbit: 824 x 866 km, 70.9° (Epoch: 13 June)

Date Brightness Start Highest point End Pass type
(mag) Time Alt. Az. Time Alt. Az. Time Alt. Az.
14 Jun 4.0 20:04:31 10° NNW 20:10:03 59° NE 20:15:34 10° SE visible
14 Jun 4.9 21:49:07 10° NW 21:53:52 29° WSW 21:57:38 14° SSW visible
15 Jun 4.1 19:50:32 10° NNW 19:56:03 58° NE 20:01:33 10° SE visible
15 Jun 4.9 21:35:07 10° NW 21:39:54 30° WSW 21:43:57 13° SSW visible
16 Jun 4.9 21:21:05 10° NW 21:25:55 31° WSW 21:30:18 12° SSW visible
17 Jun 4.9 21:07:03 10° NW 21:11:56 32° WSW 21:16:41 11° SSW visible
18 Jun 4.9 20:53:02 10° NW 20:57:57 33° WSW 21:02:52 10° SSW visible
19 Jun 4.9 20:39:02 10° NW 20:43:58 34° WSW 20:48:56 10° S visible
20 Jun 4.9 20:25:01 10° NW 20:29:59 35° WSW 20:34:59 10° S visible
21 Jun 4.9 20:10:59 10° NW 20:16:01 35° WSW 20:21:03 10° S visible
22 Jun 4.9 19:56:58 10° NW 20:02:02 36° WSW 20:07:06 10° S visible
